Location: High Meadows Obseravatory
(40.7417°N, 111.5713°W)
Time: 10:20:31
(UTC-07:00)

N. Korean satellite - Visible Passes

Search period start: 28 November 2022 00:00
Search period end: 08 December 2022 00:00
Orbit: 422 x 454 km, 97.3° (Epoch: 28 November)

Date Brightness Start Highest point End Pass type
(mag) Time Alt. Az. Time Alt. Az. Time Alt. Az.
28 Nov 8.9 05:06:18 10° NE 05:09:05 23° E 05:11:51 10° SSE visible
28 Nov 7.9 06:39:03 10° NNW 06:41:26 18° WNW 06:43:49 10° WSW visible
29 Nov 6.4 05:59:36 10° N 06:02:59 58° WNW 06:06:18 10° SSW visible
29 Nov 10.0 18:03:11 10° WSW 18:04:25 12° W 18:05:38 10° WNW visible
30 Nov 7.9 05:21:03 10° NNE 05:24:15 36° E 05:27:24 10° SSE visible
30 Nov 8.3 06:55:02 10° NW 06:56:24 12° WNW 06:57:45 10° W visible
01 Dec 9.9 04:44:03 10° ENE 04:45:17 12° E 04:46:30 10° ESE visible
01 Dec 6.9 06:14:48 10° N 06:17:56 35° WNW 06:21:02 10° SW visible
02 Dec 6.9 05:35:51 10° NNE 05:39:14 61° E 05:42:32 10° S visible
02 Dec 9.2 17:37:40 10° SSW 17:40:25 23° W 17:43:12 10° NW visible
03 Dec 9.3 04:57:53 10° NE 05:00:15 18° E 05:02:36 10° SE visible
03 Dec 7.5 06:30:00 10° NNW 06:32:43 23° WNW 06:35:25 10° SW visible
04 Dec 6.2 05:50:37 10° N 05:54:02 80° W 05:57:21 10° SSW visible
04 Dec 9.7 17:53:11 10° SW 17:55:15 15° W 17:57:21 10° NW visible
05 Dec 8.5 05:12:07 10° NE 05:15:03 27° E 05:17:56 10° SSE visible
05 Dec 8.0 06:45:16 10° NNW 06:47:18 15° WNW 06:49:20 10° WSW visible
06 Dec 6.5 06:05:20 10° N 06:08:36 48° WNW 06:11:50 10° SSW visible
07 Dec 7.6 05:26:25 10° NNE 05:29:39 43° E 05:32:50 10° S visible
07 Dec 8.4 07:01:17 10° WNW 07:01:42 10° WNW 07:02:08 10° WNW visible
07 Dec 8.6 17:27:40 10° SSW 17:30:43 32° W 17:33:48 10° NNW visible
